EW6434 Weather Reports


time (UTC)temp
C
wind
direction
speed
KPH
gust
KPH
rain 1hr
cm
rain 24hr
cm
rain mn
cm
humidity
%
barometer
mb
20260508190057 16 189 3.2 14.5 0.00 0.00 0.00 25 1011.6
20260508184548 17 150 3.2 11.3 0.00 0.00 0.00 25 1011.6
20260508183049 16 90 3.2 8.0 0.00 0.00 0.00 25 1012.0
20260508181606 16 202 4.8 0.0 0.00 0.00 0.00 26 1012.0
20260508180052 16 233 3.2 17.7 0.00 0.00 0.00 26 1012.3
20260508174540 15 41 1.6 9.7 0.00 0.00 0.00 28 1012.4
20260508173040 15 65 4.8 16.1 0.00 0.00 0.00 30 1012.2
20260508171537 15 155 1.6 12.9 0.00 0.00 0.00 28 1012.6
20260508170031 14 238 1.6 12.9 0.00 0.00 0.00 29 1012.9
20260508164535 14 191 3.2 16.1 0.00 0.00 0.00 28 1013.0
20260508163022 14 274 1.6 12.9 0.00 0.00 0.00 28 1013.0
20260508161519 13 175 1.6 17.7 0.00 0.00 0.00 30 1013.4
20260508160022 13 207 3.2 14.5 0.00 0.00 0.00 31 1013.7
20260508154506 12 139 3.2 19.3 0.00 0.00 0.00 33 1014.1
20260508070031 0 75 0.0 0.0 0.00 0.00 0.00 70 1016.7
20260508064538 1 75 0.0 0.0 0.00 0.00 0.00 70 1016.7
20260508063030 0 75 0.0 0.0 0.00 0.00 0.00 69 1016.8
20260508061529 1 75 0.0 3.2 0.00 0.00 0.00 69 1016.8
20260508054524 1 252 0.0 0.0 0.00 0.00 0.00 66 1016.8
20260508053028 1 252 0.0 0.0 0.00 0.00 0.00 65 1016.9
20260508051524 1 252 0.0 0.0 0.00 0.00 0.00 66 1016.9
20260508050026 2 255 0.0 0.0 0.00 0.00 0.00 64 1016.8
20260508044523 2 255 0.0 0.0 0.00 0.00 0.00 63 1016.9
20260508043022 3 255 0.0 0.0 0.00 0.00 0.00 60 1017.0
20260508041521 3 255 0.0 0.0 0.00 0.00 0.00 59 1017.0
20260508040024 4 255 0.0 1.6 0.00 0.00 0.00 56 1017.0
20260508034523 5 276 0.0 3.2 0.00 0.00 0.00 56 1017.0
20260508033023 5 250 0.0 0.0 0.00 0.00 0.00 53 1017.0
20260508031526 6 34 0.0 0.0 0.00 0.00 0.00 49 1016.8
20260508030019 6 266 0.0 0.0 0.00 0.00 0.00 46 1016.8
20260508024518 7 274 0.0 0.0 0.00 0.00 0.00 44 1016.5
20260508023026 8 102 0.0 1.6 0.00 0.00 0.00 40 1016.3
20260508021517 8 134 0.0 4.8 0.00 0.00 0.00 39 1016.2
20260508020016 9 148 0.0 4.8 0.00 0.00 0.00 40 1016.3
20260508014533 10 135 0.0 1.6 0.00 0.00 0.00 38 1016.3
20260508013015 10 191 0.0 4.8 0.00 0.00 0.00 37 1016.2
20260508011518 11 176 0.0 8.0 0.00 0.00 0.00 35 1016.1
20260508010023 12 147 0.0 8.0 0.00 0.00 0.00 30 1016.0
20260508004520 13 146 3.2 12.9 0.00 0.00 0.00 28 1016.1
20260508003033 14 236 3.2 11.3 0.00 0.00 0.00 27 1016.3
20260508001509 15 153 4.8 11.3 0.00 0.00 0.00 25 1016.3
20260508000009 15 190 3.2 9.7 0.00 0.00 0.00 26 1016.5
20260507234506 15 213 3.2 9.7 0.00 0.00 0.00 25 1016.6
20260507233006 14 169 3.2 8.0 0.00 0.00 0.00 27 1016.8
20260507231504 16 235 4.8 12.9 0.00 0.00 0.00 25 1016.8
20260507230004 15 190 1.6 12.9 0.00 0.00 0.00 26 1016.9
20260507224505 16 187 3.2 11.3 0.00 0.00 0.00 23 1017.1
20260507223001 16 212 3.2 12.9 0.00 0.00 0.00 22 1017.0
20260507221559 16 225 3.2 16.1 0.00 0.00 0.00 21 1017.2
20260507220058 15 252 1.6 12.9 0.00 0.00 0.00 22 1017.4
20260507214603 15 262 1.6 12.9 0.00 0.10 0.00 23 1017.6
20260507213054 15 136 3.2 11.3 0.00 0.10 0.00 22 1018.0
20260507211615 15 217 3.2 9.7 0.00 0.10 0.00 26 1018.3
20260507210053 15 221 4.8 9.7 0.00 0.10 0.00 24 1018.7
20260507204556 16 259 1.6 6.4 0.00 0.43 0.00 24 1018.9
20260507203044 15 217 3.2 12.9 0.00 0.43 0.00 24 1019.3
20260507201541 15 280 1.6 8.0 0.00 0.43 0.00 23 1019.6
20260507200039 15 217 3.2 12.9 0.00 0.43 0.00 25 1020.0
20260507194539 15 214 4.8 19.3 0.00 0.76 0.00 23 1020.2
20260507193036 14 166 3.2 11.3 0.00 0.76 0.00 22 1020.6
20260507191533 14 270 6.4 12.9 0.00 0.76 0.00 22 1020.8